This is the latest recevied weather packets stored in our database for station/object WA2TQI. If no packets are shown the sender has not sent any weather packets the latest 10 day(s).
| Time | Temp. | Humidity | Pressure | Rain* | Wind** | Luminosity | Snow |
|---|---|---|---|---|---|---|---|
| 1777664406 | 18.33° C | 46% | 1012.5 hPa | 0 mm | - | - | - |
| 1777664104 | 18.33° C | 47% | 1012.5 hPa | 0 mm | - | - | - |
| 1777663801 | 18.33° C | 45% | 1012.7 hPa | 0 mm | - | - | - |
| 1777663498 | 18.33° C | 45% | 1012.8 hPa | 0 mm | - | - | - |
| 1777663196 | 18.33° C | 45% | 1012.8 hPa | 0 mm | - | - | - |
| 1777662893 | 18.33° C | 47% | 1012.8 hPa | 0 mm | - | - | - |
| 1777662590 | 18.33° C | 46% | 1013 hPa | 0 mm | - | - | - |
| 1777662285 | 18.33° C | 47% | 1013.1 hPa | 0 mm | - | - | - |
| 1777661981 | 18.33° C | 45% | 1013.1 hPa | 0 mm | - | - | - |
| 1777661677 | 17.78° C | 47% | 1013.1 hPa | 0 mm | - | - | - |
| 1777661373 | 18.33° C | 46% | 1013.3 hPa | 0 mm | - | - | - |
| 1777661070 | 17.78° C | 45% | 1013.3 hPa | 0 mm | - | - | - |
| 1777660764 | 17.78° C | 45% | 1013.2 hPa | 0 mm | - | - | - |
| 1777660462 | 18.33° C | 48% | 1013.5 hPa | 0 mm | - | - | - |
| 1777660158 | 18.89° C | 48% | 1013.4 hPa | 0 mm | - | - | - |
| 1777659855 | 17.78° C | 48% | 1013.6 hPa | 0 mm | - | - | - |
| 1777659552 | 17.78° C | 47% | 1013.4 hPa | 0 mm | - | - | - |
| 1777659249 | 17.22° C | 49% | 1013.6 hPa | 0 mm | - | - | - |
| 1777658946 | 17.22° C | 48% | 1013.6 hPa | 0 mm | - | - | - |
| 1777658643 | 17.78° C | 49% | 1013.5 hPa | 0 mm | - | - | - |
| 1777658339 | 17.22° C | 48% | 1013.5 hPa | 0 mm | - | - | - |
| 1777658036 | 16.67° C | 50% | 1013.5 hPa | 0 mm | - | - | - |
| 1777657733 | 17.22° C | 50% | 1013.6 hPa | 0 mm | - | - | - |
| 1777657430 | 17.22° C | 49% | 1013.8 hPa | 0 mm | - | - | - |
| 1777657128 | 17.22° C | 52% | 1013.7 hPa | 0 mm | - | - | - |
* Rain latest hour (hover to see other rain measurements)
** Current wind speed in m/s (hover to see current wind gust speed)